Time,TemperatureF,DewpointF,PressureIn,WindDirection,WindDirectionDegrees,WindSpeedMPH,WindSpeedGustMPH,Humidity,HourlyPrecipIn,Conditions,Clouds,dailyrainin,SoftwareType,DateUTC
2013-10-15 00:03:00,64.7,61.4,30.02,ESE,103,2.0,5.0,89,0.00,,---,0.03,VWS V13.01,2013-10-15 05:03:00,
2013-10-15 00:08:00,64.7,61.4,30.01,ESE,103,3.0,3.0,89,0.00,,---,0.00,VWS V13.01,2013-10-15 05:08:00,
2013-10-15 00:14:00,64.6,61.3,30.01,ESE,103,2.0,4.0,89,0.00,,---,0.00,VWS V13.01,2013-10-15 05:14:00,
2013-10-15 00:19:00,64.6,61.3,30.01,ESE,103,2.0,4.0,89,0.00,,---,0.00,VWS V13.01,2013-10-15 05:19:00,
2013-10-15 00:24:00,64.6,61.3,30.00,ESE,103,2.0,4.0,89,0.00,,---,0.00,VWS V13.01,2013-10-15 05:24:00,
2013-10-15 00:29:00,64.6,61.3,30.00,ESE,103,3.0,4.0,89,0.00,,---,0.00,VWS V13.01,2013-10-15 05:29:00,
2013-10-15 00:34:00,64.6,61.3,29.99,ESE,102,5.0,5.0,89,0.00,,---,0.00,VWS V13.01,2013-10-15 05:34:00,
2013-10-15 00:39:00,64.5,61.2,29.99,ESE,103,2.0,5.0,89,0.00,,---,0.00,VWS V13.01,2013-10-15 05:39:00,
2013-10-15 00:44:00,64.5,61.2,29.99,ESE,103,1.0,5.0,89,0.00,,---,0.00,VWS V13.01,2013-10-15 05:44:00,
2013-10-15 00:49:00,64.5,61.5,29.99,East,92,2.0,6.0,90,0.00,,---,0.00,VWS V13.01,2013-10-15 05:49:00,
2013-10-15 00:54:00,64.5,61.5,29.99,East,91,2.0,6.0,90,0.00,,---,0.00,VWS V13.01,2013-10-15 05:54:00,
2013-10-15 00:59:00,64.5,61.5,29.98,East,91,3.0,6.0,90,0.00,,---,0.00,VWS V13.01,2013-10-15 05:59:00,
2013-10-15 01:04:00,64.5,61.5,29.98,East,92,4.0,6.0,90,0.00,,---,0.00,VWS V13.01,2013-10-15 06:04:00,
2013-10-15 01:10:00,64.5,61.5,29.98,East,92,3.0,4.0,90,0.00,,---,0.00,VWS V13.01,2013-10-15 06:10:00,
2013-10-15 01:15:00,64.5,61.5,29.98,East,92,2.0,4.0,90,0.00,,---,0.00,VWS V13.01,2013-10-15 06:15:00,
2013-10-15 01:20:00,64.5,61.5,29.98,East,91,3.0,6.0,90,0.00,,---,0.00,VWS V13.01,2013-10-15 06:20:00,
2013-10-15 01:25:00,64.4,61.4,29.97,East,92,2.0,6.0,90,0.00,,---,0.00,VWS V13.01,2013-10-15 06:25:00,
2013-10-15 01:30:00,64.4,61.4,29.98,East,92,4.0,6.0,90,0.00,,---,0.00,VWS V13.01,2013-10-15 06:30:00,
2013-10-15 01:35:00,64.4,61.4,29.98,East,91,1.0,6.0,90,0.00,,---,0.00,VWS V13.01,2013-10-15 06:35:00,
2013-10-15 01:40:00,64.4,61.4,29.98,East,91,0.0,4.0,90,0.00,,---,0.00,VWS V13.01,2013-10-15 06:40:00,
2013-10-15 01:45:00,64.4,61.4,29.98,East,92,0.0,4.0,90,0.00,,---,0.00,VWS V13.01,2013-10-15 06:45:00,
2013-10-15 01:50:00,64.3,61.3,29.98,East,92,1.0,4.0,90,0.00,,---,0.00,VWS V13.01,2013-10-15 06:50:00,
2013-10-15 01:55:00,64.3,61.3,29.97,East,91,0.0,4.0,90,0.00,,---,0.00,VWS V13.01,2013-10-15 06:55:00,
2013-10-15 02:00:00,64.3,61.6,29.96,East,94,2.0,7.0,91,0.00,,---,0.00,VWS V13.01,2013-10-15 07:00:00,
2013-10-15 02:05:00,64.3,61.6,29.97,ESE,123,0.0,9.0,91,0.01,,---,0.01,VWS V13.01,2013-10-15 07:05:00,
2013-10-15 02:10:00,64.3,61.6,29.96,East,86,4.0,6.0,91,0.01,,---,0.01,VWS V13.01,2013-10-15 07:10:00,
2013-10-15 02:15:00,64.3,61.6,29.96,ESE,105,4.0,7.0,91,0.01,,---,0.01,VWS V13.01,2013-10-15 07:15:00,
2013-10-15 02:21:00,64.3,61.6,29.96,East,97,3.0,7.0,91,0.01,,---,0.01,VWS V13.01,2013-10-15 07:21:00,
2013-10-15 02:26:00,64.3,61.6,29.96,East,96,4.0,7.0,91,0.01,,---,0.01,VWS V13.01,2013-10-15 07:26:00,
2013-10-15 02:31:00,64.2,61.5,29.96,East,96,3.0,7.0,91,0.01,,---,0.01,VWS V13.01,2013-10-15 07:31:00,
2013-10-15 02:36:00,64.2,61.5,29.96,East,96,0.0,7.0,91,0.01,,---,0.01,VWS V13.01,2013-10-15 07:36:00,
2013-10-15 02:41:00,64.2,61.5,29.97,East,96,1.0,3.0,91,0.01,,---,0.01,VWS V13.01,2013-10-15 07:41:00,
2013-10-15 02:46:00,64.2,61.5,29.96,East,96,0.0,3.0,91,0.01,,---,0.01,VWS V13.01,2013-10-15 07:46:00,
2013-10-15 02:51:00,64.1,61.4,29.96,East,95,0.0,3.0,91,0.01,,---,0.01,VWS V13.01,2013-10-15 07:51:00,
2013-10-15 02:56:00,64.1,61.4,29.95,East,96,2.0,3.0,91,0.01,,---,0.01,VWS V13.01,2013-10-15 07:56:00,
2013-10-15 03:01:00,64.1,61.4,29.95,East,96,3.0,5.0,91,0.01,,---,0.01,VWS V13.01,2013-10-15 08:01:00,
2013-10-15 03:06:00,64.1,61.4,29.95,East,95,4.0,6.0,91,0.01,,---,0.01,VWS V13.01,2013-10-15 08:06:00,
2013-10-15 03:11:00,64.1,61.4,29.95,East,95,2.0,5.0,91,0.00,,---,0.01,VWS V13.01,2013-10-15 08:11:00,
2013-10-15 03:17:00,64.1,61.4,29.95,East,95,3.0,5.0,91,0.00,,---,0.01,VWS V13.01,2013-10-15 08:17:00,
2013-10-15 03:22:00,64.1,61.4,29.95,East,95,4.0,5.0,91,0.00,,---,0.01,VWS V13.01,2013-10-15 08:22:00,
2013-10-15 03:27:00,64.1,61.4,29.95,East,95,2.0,5.0,91,0.00,,---,0.01,VWS V13.01,2013-10-15 08:27:00,
2013-10-15 03:32:00,64.1,61.4,29.95,East,95,0.0,5.0,91,0.00,,---,0.01,VWS V13.01,2013-10-15 08:32:00,
2013-10-15 03:37:00,64.1,61.7,29.95,East,95,4.0,5.0,92,0.00,,---,0.01,VWS V13.01,2013-10-15 08:37:00,
2013-10-15 03:42:00,64.1,61.7,29.95,East,95,0.0,4.0,92,0.00,,---,0.01,VWS V13.01,2013-10-15 08:42:00,
2013-10-15 03:47:00,64.1,61.7,29.95,East,92,4.0,7.0,92,0.00,,---,0.01,VWS V13.01,2013-10-15 08:47:00,
2013-10-15 03:50:00,64.1,61.7,29.94,East,94,6.0,7.0,92,0.00,,---,0.01,VWS V13.01,2013-10-15 08:50:00,
2013-10-15 03:55:00,64.1,61.7,29.94,East,97,1.0,7.0,92,0.00,,---,0.01,VWS V13.01,2013-10-15 08:55:00,
2013-10-15 04:00:00,64.1,61.7,29.94,East,101,5.0,7.0,92,0.00,,---,0.01,VWS V13.01,2013-10-15 09:00:00,
2013-10-15 04:05:00,64.2,61.8,29.93,East,100,3.0,9.0,92,0.00,,---,0.01,VWS V13.01,2013-10-15 09:05:00,
2013-10-15 04:10:00,64.2,61.8,29.94,East,96,3.0,7.0,92,0.00,,---,0.01,VWS V13.01,2013-10-15 09:10:00,
2013-10-15 04:15:00,64.3,61.9,29.94,East,96,2.0,7.0,92,0.00,,---,0.01,VWS V13.01,2013-10-15 09:15:00,
2013-10-15 04:20:00,64.3,61.9,29.94,East,95,3.0,7.0,92,0.00,,---,0.01,VWS V13.01,2013-10-15 09:20:00,
2013-10-15 04:25:00,64.3,61.9,29.93,East,96,3.0,7.0,92,0.00,,---,0.01,VWS V13.01,2013-10-15 09:25:00,
2013-10-15 04:30:00,64.4,62.0,29.93,East,96,3.0,7.0,92,0.00,,---,0.01,VWS V13.01,2013-10-15 09:30:00,
2013-10-15 04:35:00,64.4,62.0,29.94,East,96,2.0,7.0,92,0.00,,---,0.01,VWS V13.01,2013-10-15 09:35:00,
2013-10-15 04:40:00,64.4,62.0,29.94,East,95,1.0,2.0,92,0.00,,---,0.01,VWS V13.01,2013-10-15 09:40:00,
2013-10-15 04:46:00,64.4,62.0,29.93,East,95,0.0,4.0,92,0.00,,---,0.01,VWS V13.01,2013-10-15 09:46:00,
2013-10-15 04:51:00,64.5,62.1,29.93,East,96,2.0,4.0,92,0.00,,---,0.01,VWS V13.01,2013-10-15 09:51:00,
2013-10-15 04:56:00,64.5,62.1,29.93,East,96,1.0,4.0,92,0.00,,---,0.01,VWS V13.01,2013-10-15 09:56:00,
2013-10-15 05:01:00,64.5,62.1,29.93,East,96,0.0,4.0,92,0.00,,---,0.01,VWS V13.01,2013-10-15 10:01:00,
2013-10-15 05:06:00,64.5,62.1,29.93,East,95,0.0,5.0,92,0.00,,---,0.01,VWS V13.01,2013-10-15 10:06:00,
2013-10-15 05:11:00,64.5,62.1,29.93,East,96,1.0,6.0,92,0.00,,---,0.01,VWS V13.01,2013-10-15 10:11:00,
2013-10-15 05:16:00,64.6,62.2,29.93,East,96,1.0,6.0,92,0.00,,---,0.01,VWS V13.01,2013-10-15 10:16:00,
2013-10-15 05:21:00,64.6,62.2,29.93,East,101,1.0,7.0,92,0.00,,---,0.01,VWS V13.01,2013-10-15 10:21:00,
2013-10-15 05:26:00,64.6,62.2,29.93,East,101,1.0,7.0,92,0.00,,---,0.01,VWS V13.01,2013-10-15 10:26:00,
2013-10-15 05:31:00,64.6,62.2,29.93,East,101,2.0,7.0,92,0.00,,---,0.01,VWS V13.01,2013-10-15 10:31:00,
2013-10-15 05:36:00,64.6,62.2,29.92,ESE,103,2.0,7.0,92,0.00,,---,0.01,VWS V13.01,2013-10-15 10:36:00,
2013-10-15 05:41:00,64.6,62.2,29.93,ESE,103,4.0,4.0,92,0.00,,---,0.01,VWS V13.01,2013-10-15 10:41:00,
2013-10-15 05:46:00,64.6,62.2,29.93,ESE,103,2.0,4.0,92,0.00,,---,0.01,VWS V13.01,2013-10-15 10:46:00,
2013-10-15 05:52:00,64.6,62.2,29.92,ESE,103,2.0,4.0,92,0.00,,---,0.01,VWS V13.01,2013-10-15 10:52:00,
2013-10-15 05:57:00,64.6,62.2,29.92,ESE,103,0.0,5.0,92,0.00,,---,0.01,VWS V13.01,2013-10-15 10:57:00,
2013-10-15 06:02:00,64.7,62.3,29.92,ESE,103,1.0,5.0,92,0.00,,---,0.01,VWS V13.01,2013-10-15 11:02:00,
2013-10-15 06:07:00,64.7,62.3,29.92,ESE,103,2.0,5.0,92,0.00,,---,0.01,VWS V13.01,2013-10-15 11:07:00,
2013-10-15 06:12:00,64.7,62.3,29.92,ESE,103,0.0,6.0,92,0.00,,---,0.01,VWS V13.01,2013-10-15 11:12:00,
2013-10-15 06:17:00,64.7,62.3,29.92,ESE,103,3.0,6.0,92,0.00,,---,0.01,VWS V13.01,2013-10-15 11:17:00,
2013-10-15 06:22:00,64.8,62.4,29.91,ESE,104,1.0,6.0,92,0.00,,---,0.01,VWS V13.01,2013-10-15 11:22:00,
2013-10-15 06:27:00,64.8,62.4,29.91,ESE,110,0.0,6.0,92,0.00,,---,0.01,VWS V13.01,2013-10-15 11:27:00,
2013-10-15 06:32:00,64.9,62.5,29.91,ESE,110,1.0,6.0,92,0.00,,---,0.01,VWS V13.01,2013-10-15 11:32:00,
2013-10-15 06:37:00,64.9,62.5,29.91,ESE,113,2.0,3.0,92,0.00,,---,0.01,VWS V13.01,2013-10-15 11:37:00,
2013-10-15 06:42:00,64.9,62.5,29.91,SE,128,1.0,7.0,92,0.00,,---,0.01,VWS V13.01,2013-10-15 11:42:00,
2013-10-15 06:47:00,65.0,62.6,29.91,SE,145,1.0,7.0,92,0.00,,---,0.01,VWS V13.01,2013-10-15 11:47:00,
2013-10-15 06:53:00,65.0,62.6,29.91,SE,145,3.0,7.0,92,0.00,,---,0.01,VWS V13.01,2013-10-15 11:53:00,
2013-10-15 06:58:00,65.0,62.6,29.91,SE,145,4.0,7.0,92,0.00,,---,0.01,VWS V13.01,2013-10-15 11:58:00,
2013-10-15 07:03:00,65.1,62.7,29.91,SSE,156,3.0,7.0,92,0.00,,---,0.01,VWS V13.01,2013-10-15 12:03:00,
2013-10-15 07:08:00,65.1,62.7,29.91,SSE,157,0.0,1.0,92,0.00,,---,0.01,VWS V13.01,2013-10-15 12:08:00,
2013-10-15 07:13:00,65.1,62.7,29.91,SSE,167,0.0,6.0,92,0.00,,---,0.01,VWS V13.01,2013-10-15 12:13:00,
2013-10-15 07:18:00,65.1,62.7,29.91,SE,131,2.0,6.0,92,0.01,,---,0.02,VWS V13.01,2013-10-15 12:18:00,
2013-10-15 07:23:00,65.2,62.8,29.91,SSE,156,1.0,6.0,92,0.01,,---,0.02,VWS V13.01,2013-10-15 12:23:00,
2013-10-15 07:28:00,65.2,62.8,29.91,SSE,156,0.0,6.0,92,0.01,,---,0.02,VWS V13.01,2013-10-15 12:28:00,
2013-10-15 07:33:00,65.2,62.8,29.91,SSE,157,0.0,6.0,92,0.01,,---,0.02,VWS V13.01,2013-10-15 12:33:00,
2013-10-15 07:38:00,65.2,62.8,29.91,SSE,157,1.0,1.0,92,0.02,,---,0.03,VWS V13.01,2013-10-15 12:38:00,
2013-10-15 07:43:00,65.3,62.9,29.91,SSE,156,0.0,5.0,92,0.02,,---,0.03,VWS V13.01,2013-10-15 12:43:00,
2013-10-15 07:48:00,65.3,63.2,29.91,SSE,156,0.0,5.0,93,0.02,,---,0.03,VWS V13.01,2013-10-15 12:48:00,
2013-10-15 07:54:00,65.3,63.2,29.91,SE,130,2.0,5.0,93,0.02,,---,0.03,VWS V13.01,2013-10-15 12:54:00,
2013-10-15 07:59:00,65.4,63.3,29.92,SE,130,0.0,5.0,93,0.02,,---,0.03,VWS V13.01,2013-10-15 12:59:00,
2013-10-15 08:04:00,65.5,63.4,29.92,SE,130,1.0,5.0,93,0.03,,---,0.04,VWS V13.01,2013-10-15 13:04:00,
2013-10-15 08:09:00,65.5,63.4,29.92,SE,130,0.0,0.0,93,0.03,,---,0.04,VWS V13.01,2013-10-15 13:09:00,
2013-10-15 08:14:00,65.6,63.5,29.92,SE,130,1.0,3.0,93,0.03,,---,0.05,VWS V13.01,2013-10-15 13:14:00,
2013-10-15 08:19:00,65.7,63.6,29.91,SE,132,0.0,4.0,93,0.08,,---,0.09,VWS V13.01,2013-10-15 13:19:00,
2013-10-15 08:24:00,65.7,63.6,29.92,SE,132,0.0,4.0,93,0.09,,---,0.11,VWS V13.01,2013-10-15 13:24:00,
2013-10-15 08:29:00,65.7,63.6,29.92,SE,139,0.0,5.0,93,0.11,,---,0.12,VWS V13.01,2013-10-15 13:29:00,
2013-10-15 08:34:00,65.8,63.7,29.92,SE,138,0.0,5.0,93,0.13,,---,0.14,VWS V13.01,2013-10-15 13:34:00,
2013-10-15 08:39:00,65.8,63.7,29.92,SE,138,1.0,3.0,93,0.13,,---,0.16,VWS V13.01,2013-10-15 13:39:00,
2013-10-15 08:44:00,65.8,63.7,29.93,SE,137,0.0,3.0,93,0.15,,---,0.18,VWS V13.01,2013-10-15 13:44:00,
2013-10-15 08:49:00,65.9,63.8,29.93,SE,138,0.0,3.0,93,0.18,,---,0.22,VWS V13.01,2013-10-15 13:49:00,
2013-10-15 08:55:00,66.0,64.2,29.94,SE,144,0.0,5.0,94,0.20,,---,0.24,VWS V13.01,2013-10-15 13:55:00,
2013-10-15 09:00:00,66.1,64.3,29.94,South,169,0.0,5.0,94,0.22,,---,0.25,VWS V13.01,2013-10-15 14:00:00,
2013-10-15 09:05:00,66.2,64.4,29.94,South,169,0.0,5.0,94,0.24,,---,0.27,VWS V13.01,2013-10-15 14:05:00,
2013-10-15 09:10:00,66.2,64.4,29.94,South,169,0.0,2.0,94,0.24,,---,0.28,VWS V13.01,2013-10-15 14:10:00,
2013-10-15 09:15:00,66.2,64.4,29.94,South,169,0.0,3.0,94,0.26,,---,0.30,VWS V13.01,2013-10-15 14:15:00,
2013-10-15 09:20:00,66.2,64.4,29.94,South,169,0.0,3.0,94,0.27,,---,0.31,VWS V13.01,2013-10-15 14:20:00,
2013-10-15 09:25:00,66.2,64.4,29.93,South,169,0.0,3.0,94,0.28,,---,0.32,VWS V13.01,2013-10-15 14:25:00,
2013-10-15 09:30:00,66.2,64.4,29.94,South,169,0.0,3.0,94,0.29,,---,0.33,VWS V13.01,2013-10-15 14:30:00,
2013-10-15 09:35:00,66.2,64.4,29.94,South,169,0.0,3.0,94,0.31,,---,0.35,VWS V13.01,2013-10-15 14:35:00,
2013-10-15 09:40:00,66.3,64.5,29.94,West,281,0.0,2.0,94,0.21,,---,0.36,VWS V13.01,2013-10-15 14:40:00,
2013-10-15 09:45:00,66.3,64.5,29.94,West,281,0.0,3.0,94,0.22,,---,0.37,VWS V13.01,2013-10-15 14:45:00,
2013-10-15 09:51:00,66.4,64.6,29.94,West,281,0.0,3.0,94,0.23,,---,0.38,VWS V13.01,2013-10-15 14:51:00,
2013-10-15 09:56:00,66.4,64.6,29.94,West,281,0.0,3.0,94,0.25,,---,0.40,VWS V13.01,2013-10-15 14:56:00,
2013-10-15 10:01:00,66.4,64.6,29.94,West,279,0.0,3.0,94,0.27,,---,0.42,VWS V13.01,2013-10-15 15:01:00,
2013-10-15 10:06:00,66.5,64.7,29.94,West,279,0.0,3.0,94,0.29,,---,0.44,VWS V13.01,2013-10-15 15:06:00,
2013-10-15 10:11:00,66.5,64.7,29.94,West,278,0.0,4.0,94,0.18,,---,0.46,VWS V13.01,2013-10-15 15:11:00,
2013-10-15 10:16:00,66.5,64.7,29.94,West,277,0.0,4.0,94,0.20,,---,0.48,VWS V13.01,2013-10-15 15:16:00,
2013-10-15 10:21:00,66.5,64.7,29.94,West,277,0.0,4.0,94,0.21,,---,0.50,VWS V13.01,2013-10-15 15:21:00,
2013-10-15 10:26:00,66.5,64.7,29.94,West,277,0.0,4.0,94,0.22,,---,0.50,VWS V13.01,2013-10-15 15:26:00,
2013-10-15 10:31:00,66.5,64.7,29.94,West,278,0.0,4.0,94,0.23,,---,0.51,VWS V13.01,2013-10-15 15:31:00,
2013-10-15 10:36:00,66.5,64.7,29.94,West,277,0.0,4.0,94,0.24,,---,0.52,VWS V13.01,2013-10-15 15:36:00,
2013-10-15 10:41:00,66.7,64.9,29.94,West,277,0.0,0.0,94,0.18,,---,0.53,VWS V13.01,2013-10-15 15:41:00,
2013-10-15 10:46:00,66.6,64.8,29.94,WSW,238,2.0,5.0,94,0.19,,---,0.54,VWS V13.01,2013-10-15 15:46:00,
2013-10-15 10:51:00,66.5,64.7,29.94,SW,234,0.0,5.0,94,0.19,,---,0.54,VWS V13.01,2013-10-15 15:51:00,
2013-10-15 10:56:00,66.4,64.6,29.94,SW,234,0.0,5.0,94,0.20,,---,0.55,VWS V13.01,2013-10-15 15:56:00,
2013-10-15 11:02:00,66.3,64.5,29.94,SW,234,0.0,5.0,94,0.21,,---,0.56,VWS V13.01,2013-10-15 16:02:00,
2013-10-15 11:07:00,66.2,64.4,29.94,SW,234,0.0,5.0,94,0.22,,---,0.57,VWS V13.01,2013-10-15 16:07:00,
2013-10-15 11:12:00,66.2,64.7,29.95,SW,234,0.0,5.0,95,0.13,,---,0.59,VWS V13.01,2013-10-15 16:12:00,
2013-10-15 11:17:00,66.3,64.8,29.95,SW,233,0.0,5.0,95,0.14,,---,0.59,VWS V13.01,2013-10-15 16:17:00,
2013-10-15 11:22:00,66.3,64.8,29.95,SW,234,0.0,5.0,95,0.14,,---,0.59,VWS V13.01,2013-10-15 16:22:00,
2013-10-15 11:27:00,66.3,64.8,29.95,SW,234,0.0,5.0,95,0.15,,---,0.60,VWS V13.01,2013-10-15 16:27:00,
2013-10-15 11:32:00,66.3,64.8,29.94,SW,234,0.0,5.0,95,0.15,,---,0.61,VWS V13.01,2013-10-15 16:32:00,
2013-10-15 11:37:00,66.4,64.9,29.95,SW,233,0.0,5.0,95,0.16,,---,0.61,VWS V13.01,2013-10-15 16:37:00,
2013-10-15 11:42:00,66.5,65.0,29.95,SW,233,0.0,4.0,95,0.10,,---,0.62,VWS V13.01,2013-10-15 16:42:00,
2013-10-15 11:47:00,66.6,65.1,29.95,SW,233,0.0,4.0,95,0.10,,---,0.62,VWS V13.01,2013-10-15 16:47:00,
2013-10-15 11:52:00,66.6,65.1,29.95,SW,233,0.0,4.0,95,0.10,,---,0.62,VWS V13.01,2013-10-15 16:52:00,
2013-10-15 11:57:00,66.6,65.1,29.94,SW,233,0.0,4.0,95,0.10,,---,0.62,VWS V13.01,2013-10-15 16:57:00,
2013-10-15 12:03:00,66.6,65.1,29.94,SW,233,0.0,4.0,95,0.11,,---,0.63,VWS V13.01,2013-10-15 17:03:00,
2013-10-15 12:08:00,66.5,65.0,29.95,SW,233,0.0,0.0,95,0.11,,---,0.63,VWS V13.01,2013-10-15 17:08:00,
2013-10-15 12:13:00,66.5,65.0,29.95,SW,233,4.0,4.0,95,0.06,,---,0.64,VWS V13.01,2013-10-15 17:13:00,
2013-10-15 12:18:00,66.5,65.0,29.95,South,188,3.0,4.0,95,0.06,,---,0.64,VWS V13.01,2013-10-15 17:18:00,
2013-10-15 12:23:00,66.5,65.0,29.95,SSW,202,1.0,4.0,95,0.06,,---,0.64,VWS V13.01,2013-10-15 17:23:00,
2013-10-15 12:28:00,66.4,64.9,29.95,SSW,203,3.0,4.0,95,0.06,,---,0.64,VWS V13.01,2013-10-15 17:28:00,
2013-10-15 12:33:00,66.3,64.8,29.95,SSW,204,0.0,4.0,95,0.07,,---,0.65,VWS V13.01,2013-10-15 17:33:00,
2013-10-15 12:38:00,66.3,64.8,29.94,SSW,204,0.0,2.0,95,0.07,,---,0.65,VWS V13.01,2013-10-15 17:38:00,
2013-10-15 12:43:00,66.2,64.7,29.94,SSW,203,0.0,5.0,95,0.04,,---,0.65,VWS V13.01,2013-10-15 17:43:00,
2013-10-15 12:48:00,66.2,64.7,29.94,SSW,204,0.0,5.0,95,0.04,,---,0.65,VWS V13.01,2013-10-15 17:48:00,
2013-10-15 12:53:00,66.2,64.7,29.94,SSW,204,0.0,5.0,95,0.05,,---,0.66,VWS V13.01,2013-10-15 17:53:00,
2013-10-15 12:58:00,66.2,64.7,29.93,SSW,204,0.0,5.0,95,0.05,,---,0.66,VWS V13.01,2013-10-15 17:58:00,
2013-10-15 13:04:00,66.3,64.8,29.94,SSW,203,0.0,5.0,95,0.06,,---,0.67,VWS V13.01,2013-10-15 18:04:00,
2013-10-15 13:09:00,66.3,64.8,29.94,SSW,205,0.0,1.0,95,0.05,,---,0.68,VWS V13.01,2013-10-15 18:09:00,
2013-10-15 13:14:00,66.2,64.7,29.94,SSW,205,0.0,1.0,95,0.05,,---,0.68,VWS V13.01,2013-10-15 18:14:00,
2013-10-15 13:19:00,66.2,64.7,29.94,SW,217,0.0,6.0,95,0.06,,---,0.69,VWS V13.01,2013-10-15 18:19:00,
2013-10-15 13:24:00,66.2,64.7,29.93,SW,217,3.0,6.0,95,0.06,,---,0.69,VWS V13.01,2013-10-15 18:24:00,
2013-10-15 13:29:00,66.3,64.8,29.93,SW,217,0.0,6.0,95,0.06,,---,0.69,VWS V13.01,2013-10-15 18:29:00,
2013-10-15 13:34:00,66.4,64.9,29.92,SW,217,1.0,6.0,95,0.07,,---,0.70,VWS V13.01,2013-10-15 18:34:00,
2013-10-15 13:39:00,66.4,64.9,29.92,SW,217,2.0,4.0,95,0.05,,---,0.70,VWS V13.01,2013-10-15 18:39:00,
2013-10-15 13:44:00,66.4,64.9,29.92,SW,217,0.0,4.0,95,0.05,,---,0.70,VWS V13.01,2013-10-15 18:44:00,
2013-10-15 13:49:00,66.5,65.0,29.92,SW,217,0.0,4.0,95,0.05,,---,0.70,VWS V13.01,2013-10-15 18:49:00,
2013-10-15 13:54:00,66.5,65.0,29.92,SW,217,0.0,4.0,95,0.05,,---,0.70,VWS V13.01,2013-10-15 18:54:00,
2013-10-15 13:59:00,66.5,65.0,29.92,SW,217,0.0,4.0,95,0.05,,---,0.70,VWS V13.01,2013-10-15 18:59:00,
2013-10-15 14:05:00,66.5,65.0,29.92,SW,217,0.0,4.0,95,0.05,,---,0.70,VWS V13.01,2013-10-15 19:05:00,
2013-10-15 14:10:00,66.5,65.0,29.92,SW,217,0.0,0.0,95,0.02,,---,0.70,VWS V13.01,2013-10-15 19:10:00,
2013-10-15 14:15:00,66.5,65.0,29.92,SW,217,0.0,3.0,95,0.02,,---,0.70,VWS V13.01,2013-10-15 19:15:00,
2013-10-15 14:20:00,66.5,65.0,29.92,SW,217,0.0,3.0,95,0.02,,---,0.70,VWS V13.01,2013-10-15 19:20:00,
2013-10-15 14:25:00,66.4,64.9,29.92,SW,217,0.0,3.0,95,0.02,,---,0.70,VWS V13.01,2013-10-15 19:25:00,
2013-10-15 14:30:00,66.4,64.9,29.91,SW,217,0.0,4.0,95,0.02,,---,0.70,VWS V13.01,2013-10-15 19:30:00,
2013-10-15 14:35:00,66.4,64.9,29.92,SW,217,0.0,4.0,95,0.02,,---,0.70,VWS V13.01,2013-10-15 19:35:00,
2013-10-15 14:40:00,66.4,64.9,29.91,SW,217,0.0,2.0,95,0.00,,---,0.70,VWS V13.01,2013-10-15 19:40:00,
2013-10-15 14:45:00,66.4,64.9,29.92,SW,217,0.0,2.0,95,0.00,,---,0.70,VWS V13.01,2013-10-15 19:45:00,
2013-10-15 14:50:00,66.4,64.9,29.92,SW,217,0.0,2.0,95,0.00,,---,0.70,VWS V13.01,2013-10-15 19:50:00,
2013-10-15 14:55:00,66.4,64.9,29.93,SW,217,0.0,2.0,95,0.00,,---,0.70,VWS V13.01,2013-10-15 19:55:00,
2013-10-15 15:01:00,66.5,65.0,29.93,SW,217,0.0,2.0,95,0.00,,---,0.70,VWS V13.01,2013-10-15 20:01:00,
2013-10-15 15:06:00,66.5,65.0,29.92,SW,217,0.0,2.0,95,0.00,,---,0.70,VWS V13.01,2013-10-15 20:06:00,
2013-10-15 15:11:00,66.5,65.0,29.93,SW,217,0.0,0.0,95,0.00,,---,0.70,VWS V13.01,2013-10-15 20:11:00,
2013-10-15 15:16:00,66.6,65.1,29.93,SW,217,0.0,0.0,95,0.00,,---,0.70,VWS V13.01,2013-10-15 20:16:00,
2013-10-15 15:21:00,66.6,65.1,29.93,SW,217,0.0,0.0,95,0.00,,---,0.70,VWS V13.01,2013-10-15 20:21:00,
2013-10-15 15:26:00,66.6,65.1,29.93,SW,217,0.0,0.0,95,0.00,,---,0.70,VWS V13.01,2013-10-15 20:26:00,
2013-10-15 15:31:00,66.5,65.0,29.93,SW,217,0.0,0.0,95,0.01,,---,0.71,VWS V13.01,2013-10-15 20:31:00,
2013-10-15 15:36:00,66.5,65.0,29.93,SW,217,2.0,4.0,95,0.01,,---,0.71,VWS V13.01,2013-10-15 20:36:00,
2013-10-15 15:41:00,66.5,65.0,29.93,SW,217,0.0,0.0,95,0.01,,---,0.71,VWS V13.01,2013-10-15 20:41:00,
2013-10-15 15:46:00,66.4,64.9,29.92,SW,217,3.0,3.0,95,0.02,,---,0.72,VWS V13.01,2013-10-15 20:46:00,
2013-10-15 15:51:00,66.3,64.8,29.92,SW,217,0.0,3.0,95,0.02,,---,0.72,VWS V13.01,2013-10-15 20:51:00,
2013-10-15 15:56:00,66.3,65.1,29.92,SW,217,0.0,3.0,96,0.02,,---,0.72,VWS V13.01,2013-10-15 20:56:00,
2013-10-15 16:02:00,66.4,65.2,29.92,SW,217,0.0,3.0,96,0.02,,---,0.72,VWS V13.01,2013-10-15 21:02:00,
2013-10-15 16:07:00,66.4,65.2,29.92,SW,217,0.0,3.0,96,0.02,,---,0.72,VWS V13.01,2013-10-15 21:07:00,
2013-10-15 16:12:00,66.5,65.3,29.92,SW,217,0.0,0.0,96,0.02,,---,0.72,VWS V13.01,2013-10-15 21:12:00,
2013-10-15 16:17:00,66.5,65.3,29.92,SW,217,0.0,0.0,96,0.02,,---,0.72,VWS V13.01,2013-10-15 21:17:00,
2013-10-15 16:22:00,66.5,65.3,29.91,SW,217,0.0,0.0,96,0.02,,---,0.72,VWS V13.01,2013-10-15 21:22:00,
2013-10-15 16:27:00,66.5,65.3,29.91,SW,217,0.0,0.0,96,0.02,,---,0.72,VWS V13.01,2013-10-15 21:27:00,
2013-10-15 16:32:00,66.6,65.4,29.91,SW,217,0.0,0.0,96,0.02,,---,0.72,VWS V13.01,2013-10-15 21:32:00,
2013-10-15 16:37:00,66.6,65.4,29.91,SW,217,0.0,0.0,96,0.02,,---,0.72,VWS V13.01,2013-10-15 21:37:00,
2013-10-15 16:42:00,66.6,65.4,29.91,SW,217,0.0,0.0,96,0.02,,---,0.73,VWS V13.01,2013-10-15 21:42:00,
2013-10-15 16:47:00,66.6,65.4,29.92,SW,217,0.0,0.0,96,0.02,,---,0.73,VWS V13.01,2013-10-15 21:47:00,
2013-10-15 16:52:00,66.6,65.4,29.92,SW,217,0.0,0.0,96,0.02,,---,0.73,VWS V13.01,2013-10-15 21:52:00,
2013-10-15 16:58:00,66.5,65.3,29.92,SW,217,0.0,0.0,96,0.02,,---,0.73,VWS V13.01,2013-10-15 21:58:00,
2013-10-15 17:03:00,66.5,65.3,29.92,SW,217,2.0,3.0,96,0.02,,---,0.73,VWS V13.01,2013-10-15 22:03:00,
2013-10-15 17:08:00,66.5,65.3,29.92,SW,217,0.0,0.0,96,0.02,,---,0.73,VWS V13.01,2013-10-15 22:08:00,
2013-10-15 17:13:00,66.5,65.3,29.93,SW,217,0.0,2.0,96,0.01,,---,0.73,VWS V13.01,2013-10-15 22:13:00,
2013-10-15 17:18:00,66.5,65.3,29.93,SW,217,0.0,2.0,96,0.01,,---,0.73,VWS V13.01,2013-10-15 22:18:00,
2013-10-15 17:23:00,66.5,65.3,29.93,SW,217,0.0,2.0,96,0.01,,---,0.73,VWS V13.01,2013-10-15 22:23:00,
2013-10-15 17:28:00,66.5,65.3,29.94,SW,217,0.0,2.0,96,0.01,,---,0.73,VWS V13.01,2013-10-15 22:28:00,
2013-10-15 17:33:00,66.4,65.2,29.94,SW,217,0.0,2.0,96,0.01,,---,0.73,VWS V13.01,2013-10-15 22:33:00,
2013-10-15 17:38:00,66.3,65.1,29.94,SW,217,0.0,0.0,96,0.02,,---,0.74,VWS V13.01,2013-10-15 22:38:00,
2013-10-15 17:43:00,66.3,65.1,29.94,SW,217,3.0,4.0,96,0.02,,---,0.74,VWS V13.01,2013-10-15 22:43:00,
2013-10-15 17:48:00,66.2,65.0,29.94,SW,217,0.0,5.0,96,0.02,,---,0.74,VWS V13.01,2013-10-15 22:48:00,
2013-10-15 17:53:00,66.2,64.7,29.94,SW,217,0.0,5.0,95,0.03,,---,0.75,VWS V13.01,2013-10-15 22:53:00,
2013-10-15 17:59:00,66.2,65.0,29.94,SW,217,0.0,5.0,96,0.03,,---,0.75,VWS V13.01,2013-10-15 22:59:00,
2013-10-15 18:04:00,66.2,65.0,29.94,SW,217,0.0,5.0,96,0.04,,---,0.76,VWS V13.01,2013-10-15 23:04:00,
2013-10-15 18:09:00,66.1,64.9,29.94,SW,217,1.0,1.0,96,0.03,,---,0.76,VWS V13.01,2013-10-15 23:09:00,
2013-10-15 18:14:00,66.2,65.0,29.94,SW,217,2.0,4.0,96,0.04,,---,0.77,VWS V13.01,2013-10-15 23:14:00,
2013-10-15 18:19:00,66.1,64.9,29.94,SW,217,0.0,4.0,96,0.04,,---,0.77,VWS V13.01,2013-10-15 23:19:00,
2013-10-15 18:24:00,66.1,64.9,29.94,SW,217,0.0,4.0,96,0.04,,---,0.77,VWS V13.01,2013-10-15 23:24:00,
2013-10-15 18:30:00,66.1,64.9,29.94,SW,217,0.0,4.0,96,0.05,,---,0.78,VWS V13.01,2013-10-15 23:30:00,
2013-10-15 18:35:00,66.1,64.9,29.94,SW,217,0.0,4.0,96,0.05,,---,0.78,VWS V13.01,2013-10-15 23:35:00,
2013-10-15 18:40:00,66.0,64.8,29.94,SW,217,0.0,0.0,96,0.05,,---,0.79,VWS V13.01,2013-10-15 23:40:00,
2013-10-15 18:45:00,66.0,64.8,29.94,SW,217,0.0,0.0,96,0.05,,---,0.79,VWS V13.01,2013-10-15 23:45:00,
2013-10-15 18:50:00,66.1,64.9,29.95,SW,217,0.0,3.0,96,0.05,,---,0.79,VWS V13.01,2013-10-15 23:50:00,
2013-10-15 18:55:00,66.0,64.8,29.94,SW,217,0.0,3.0,96,0.06,,---,0.80,VWS V13.01,2013-10-15 23:55:00,
2013-10-15 19:00:00,66.0,64.8,29.95,NW,307,0.0,5.0,96,0.06,,---,0.80,VWS V13.01,2013-10-16 00:00:00,
2013-10-15 19:05:00,65.9,64.7,29.95,WSW,244,0.0,5.0,96,0.07,,---,0.81,VWS V13.01,2013-10-16 00:05:00,
2013-10-15 19:10:00,65.8,64.6,29.95,NW,312,0.0,5.0,96,0.05,,---,0.81,VWS V13.01,2013-10-16 00:10:00,
2013-10-15 19:15:00,65.6,64.4,29.95,NW,323,0.0,5.0,96,0.06,,---,0.82,VWS V13.01,2013-10-16 00:15:00,
2013-10-15 19:20:00,65.5,64.3,29.95,WNW,298,0.0,5.0,96,0.06,,---,0.82,VWS V13.01,2013-10-16 00:20:00,
2013-10-15 19:26:00,65.4,64.2,29.96,WNW,298,0.0,5.0,96,0.07,,---,0.83,VWS V13.01,2013-10-16 00:26:00,
2013-10-15 19:31:00,65.2,64.0,29.96,NW,321,0.0,5.0,96,0.07,,---,0.83,VWS V13.01,2013-10-16 00:31:00,
2013-10-15 19:36:00,64.9,63.7,29.96,NW,313,3.0,10.0,96,0.08,,---,0.84,VWS V13.01,2013-10-16 00:36:00,
2013-10-15 19:41:00,64.4,62.9,29.96,NW,309,3.0,10.0,95,0.05,,---,0.84,VWS V13.01,2013-10-16 00:41:00,
2013-10-15 19:46:00,64.2,62.7,29.97,NW,314,4.0,11.0,95,0.05,,---,0.84,VWS V13.01,2013-10-16 00:46:00,
2013-10-15 19:51:00,63.9,62.4,29.97,NW,310,1.0,11.0,95,0.06,,---,0.85,VWS V13.01,2013-10-16 00:51:00,
2013-10-15 19:56:00,63.6,62.2,29.97,NNW,348,0.0,11.0,95,0.06,,---,0.85,VWS V13.01,2013-10-16 00:56:00,
2013-10-15 20:01:00,63.3,61.8,29.97,NW,318,0.0,13.0,95,0.06,,---,0.85,VWS V13.01,2013-10-16 01:01:00,
2013-10-15 20:06:00,63.1,61.7,29.97,NW,316,0.0,13.0,95,0.06,,---,0.86,VWS V13.01,2013-10-16 01:06:00,
2013-10-15 20:12:00,63.0,61.5,29.97,WNW,288,0.0,7.0,95,0.05,,---,0.86,VWS V13.01,2013-10-16 01:12:00,
2013-10-15 20:17:00,62.9,61.5,29.97,NW,311,1.0,9.0,95,0.05,,---,0.86,VWS V13.01,2013-10-16 01:17:00,
2013-10-15 20:22:00,62.8,61.3,29.97,WSW,251,0.0,9.0,95,0.05,,---,0.86,VWS V13.01,2013-10-16 01:22:00,
2013-10-15 20:27:00,62.8,61.3,29.98,NW,309,3.0,9.0,95,0.06,,---,0.87,VWS V13.01,2013-10-16 01:27:00,
2013-10-15 20:32:00,62.7,61.2,29.98,NNW,336,2.0,9.0,95,0.07,,---,0.88,VWS V13.01,2013-10-16 01:32:00,
2013-10-15 20:37:00,62.5,61.0,29.98,WNW,292,3.0,13.0,95,0.07,,---,0.88,VWS V13.01,2013-10-16 01:37:00,
2013-10-15 20:42:00,62.5,61.0,29.98,WNW,292,3.0,9.0,95,0.05,,---,0.89,VWS V13.01,2013-10-16 01:42:00,
2013-10-15 20:47:00,62.4,61.0,29.98,WNW,287,3.0,9.0,95,0.06,,---,0.90,VWS V13.01,2013-10-16 01:47:00,
2013-10-15 20:52:00,62.4,61.2,29.98,NW,304,0.0,9.0,96,0.07,,---,0.91,VWS V13.01,2013-10-16 01:52:00,
2013-10-15 20:58:00,62.3,61.2,29.98,NW,322,0.0,9.0,96,0.08,,---,0.92,VWS V13.01,2013-10-16 01:58:00,
2013-10-15 21:03:00,62.3,61.2,29.98,WNW,300,0.0,9.0,96,0.09,,---,0.93,VWS V13.01,2013-10-16 02:03:00,
2013-10-15 21:08:00,62.4,61.2,29.98,NNW,344,0.0,2.0,96,0.08,,---,0.94,VWS V13.01,2013-10-16 02:08:00,
2013-10-15 21:13:00,62.3,61.2,29.99,NW,317,0.0,2.0,96,0.09,,---,0.96,VWS V13.01,2013-10-16 02:13:00,
2013-10-15 21:19:00,62.4,61.2,29.99,NNW,334,0.0,9.0,96,0.12,,---,0.98,VWS V13.01,2013-10-16 02:19:00,
2013-10-15 21:24:00,62.3,61.2,29.99,NW,311,2.0,9.0,96,0.13,,---,0.99,VWS V13.01,2013-10-16 02:24:00,
2013-10-15 21:29:00,62.4,61.2,29.99,NW,310,0.0,9.0,96,0.14,,---,1.00,VWS V13.01,2013-10-16 02:29:00,
2013-10-15 21:34:00,62.4,61.2,29.99,NW,310,0.0,9.0,96,0.14,,---,1.00,VWS V13.01,2013-10-16 02:34:00,
2013-10-15 21:39:00,62.4,61.2,29.99,NW,310,0.0,0.0,96,0.13,,---,1.01,VWS V13.01,2013-10-16 02:39:00,
2013-10-15 21:44:00,62.3,61.2,29.99,NW,310,0.0,0.0,96,0.14,,---,1.02,VWS V13.01,2013-10-16 02:44:00,
2013-10-15 21:49:00,62.3,61.2,29.99,WNW,290,0.0,4.0,96,0.14,,---,1.02,VWS V13.01,2013-10-16 02:49:00,
2013-10-15 21:54:00,62.3,61.2,29.99,WNW,290,0.0,4.0,96,0.15,,---,1.03,VWS V13.01,2013-10-16 02:54:00,
2013-10-15 22:00:00,62.2,60.8,29.99,WNW,300,0.0,4.0,95,0.15,,---,1.03,VWS V13.01,2013-10-16 03:00:00,
2013-10-15 22:05:00,62.2,60.8,29.99,NNW,328,0.0,5.0,95,0.16,,---,1.04,VWS V13.01,2013-10-16 03:05:00,
2013-10-15 22:10:00,62.2,60.8,29.99,NNW,328,0.0,0.0,95,0.10,,---,1.04,VWS V13.01,2013-10-16 03:10:00,
2013-10-15 22:15:00,62.2,61.0,30.00,NW,311,0.0,4.0,96,0.10,,---,1.04,VWS V13.01,2013-10-16 03:15:00,
2013-10-15 22:20:00,62.2,61.0,30.00,NW,323,0.0,4.0,96,0.11,,---,1.05,VWS V13.01,2013-10-16 03:20:00,
2013-10-15 22:25:00,62.1,61.0,29.99,WNW,283,0.0,4.0,96,0.11,,---,1.05,VWS V13.01,2013-10-16 03:25:00,
2013-10-15 22:30:00,62.0,60.6,29.99,NW,325,0.0,4.0,95,0.12,,---,1.06,VWS V13.01,2013-10-16 03:30:00,
2013-10-15 22:35:00,61.9,60.8,30.00,NW,325,0.0,4.0,96,0.12,,---,1.06,VWS V13.01,2013-10-16 03:35:00,
2013-10-15 22:40:00,61.8,60.7,30.00,NW,325,0.0,1.0,96,0.05,,---,1.06,VWS V13.01,2013-10-16 03:40:00,
2013-10-15 22:46:00,61.7,60.5,30.00,WNW,294,0.0,3.0,96,0.06,,---,1.07,VWS V13.01,2013-10-16 03:46:00,
2013-10-15 22:51:00,61.7,60.5,30.00,NNW,333,0.0,5.0,96,0.06,,---,1.07,VWS V13.01,2013-10-16 03:51:00,
2013-10-15 22:56:00,61.6,60.2,29.99,NW,326,0.0,5.0,95,0.06,,---,1.07,VWS V13.01,2013-10-16 03:56:00,
2013-10-15 23:01:00,61.5,60.1,29.99,West,277,0.0,5.0,95,0.07,,---,1.08,VWS V13.01,2013-10-16 04:01:00,
2013-10-15 23:02:00,61.5,60.1,29.99,West,277,0.0,5.0,95,0.07,,---,1.08,VWS V13.01,2013-10-16 04:02:00,
2013-10-15 23:03:00,61.4,60.0,29.99,WNW,299,0.0,5.0,95,0.07,,---,1.08,VWS V13.01,2013-10-16 04:03:00,
2013-10-15 23:08:00,61.3,59.9,30.00,NW,318,0.0,0.0,95,0.04,,---,1.08,VWS V13.01,2013-10-16 04:08:00,
2013-10-15 23:13:00,61.2,60.0,30.00,NW,318,0.0,0.0,96,0.05,,---,1.09,VWS V13.01,2013-10-16 04:13:00,
2013-10-15 23:18:00,61.2,60.0,30.00,WSW,257,0.0,5.0,96,0.05,,---,1.09,VWS V13.01,2013-10-16 04:18:00,
2013-10-15 23:23:00,61.1,60.0,30.00,NW,323,0.0,5.0,96,0.06,,---,1.10,VWS V13.01,2013-10-16 04:23:00,
2013-10-15 23:29:00,61.0,59.9,30.00,West,279,0.0,5.0,96,0.07,,---,1.11,VWS V13.01,2013-10-16 04:29:00,
2013-10-15 23:34:00,60.9,59.5,30.00,West,279,0.0,5.0,95,0.08,,---,1.12,VWS V13.01,2013-10-16 04:34:00,
2013-10-15 23:39:00,60.9,59.5,30.01,NW,304,0.0,1.0,95,0.08,,---,1.14,VWS V13.01,2013-10-16 04:39:00,
2013-10-15 23:44:00,60.8,59.4,30.01,WNW,287,0.0,6.0,95,0.10,,---,1.16,VWS V13.01,2013-10-16 04:44:00,
2013-10-15 23:49:00,60.6,59.2,30.01,NW,306,0.0,7.0,95,0.12,,---,1.18,VWS V13.01,2013-10-16 04:49:00,
2013-10-15 23:54:00,60.5,59.4,30.01,NW,311,0.0,7.0,96,0.13,,---,1.19,VWS V13.01,2013-10-16 04:54:00,
2013-10-15 23:59:00,60.4,59.3,30.01,NNW,340,0.0,7.0,96,0.15,,---,1.21,VWS V13.01,2013-10-16 04:59:00,